| time (UTC) | temp F | wind direction | speed knots | gust knots | rain 1hr in | rain 24hr in | rain mn in | humidity % | barometer mb |
| 20260903215743 | 92 | 222 | 2.6 | 10.4 | 0.00 | 0.00 | 0.00 | 62 | 1012.9 |
| 20260903214720 | 92 | 242 | 2.6 | 10.4 | 0.00 | 0.00 | 0.00 | 62 | 1012.7 |
| 20260903213715 | 92 | 200 | 1.7 | 7.8 | 0.00 | 0.00 | 0.00 | 62 | 1012.8 |
| 20260903211524 | 93 | 193 | 1.7 | 8.7 | 0.00 | 0.00 | 0.00 | 61 | 1012.9 |
| 20260903210526 | 93 | 273 | 2.6 | 9.6 | 0.00 | 0.00 | 0.00 | 60 | 1013.0 |
| 20260903204407 | 94 | 257 | 1.7 | 8.7 | 0.00 | 0.00 | 0.00 | 58 | 1013.1 |
| 20260903203352 | 94 | 243 | 1.7 | 7.0 | 0.00 | 0.00 | 0.00 | 57 | 1013.2 |
| 20260903202404 | 94 | 267 | 1.7 | 7.8 | 0.00 | 0.00 | 0.00 | 57 | 1013.3 |
| 20260903201336 | 94 | 314 | 2.6 | 7.8 | 0.00 | 0.00 | 0.00 | 57 | 1013.5 |
| 20260903195211 | 94 | 270 | 1.7 | 7.0 | 0.00 | 0.00 | 0.00 | 56 | 1013.9 |
| 20260903194144 | 94 | 261 | 1.7 | 7.0 | 0.00 | 0.00 | 0.00 | 57 | 1014.1 |
| 20260903193141 | 93 | 275 | 0.9 | 5.2 | 0.00 | 0.00 | 0.00 | 58 | 1014.2 |
| 20260903192146 | 93 | 279 | 0.9 | 5.2 | 0.00 | 0.00 | 0.00 | 56 | 1014.3 |
| 20260903191121 | 92 | 231 | 0.0 | 7.0 | 0.00 | 0.00 | 0.00 | 58 | 1014.5 |
| 20260903190109 | 92 | 260 | 0.9 | 7.0 | 0.00 | 0.00 | 0.00 | 59 | 1014.6 |
| 20260903183946 | 93 | 228 | 0.9 | 9.6 | 0.00 | 0.00 | 0.00 | 59 | 1014.8 |
| 20260903182935 | 92 | 267 | 2.6 | 9.6 | 0.00 | 0.00 | 0.00 | 57 | 1014.6 |
| 20260903181918 | 92 | 286 | 2.6 | 7.0 | 0.00 | 0.21 | 0.00 | 58 | 1014.9 |
| 20260903180903 | 91 | 268 | 0.9 | 4.3 | 0.00 | 0.37 | 0.00 | 60 | 1015.0 |
| 20260903175915 | 91 | 244 | 0.0 | 2.6 | 0.00 | 0.39 | 0.00 | 61 | 1015.0 |
| 20260903174936 | 91 | 271 | 0.9 | 3.5 | 0.00 | 0.39 | 0.00 | 59 | 1014.9 |
| 20260903172816 | 90 | 229 | 1.7 | 6.1 | 0.00 | 0.39 | 0.00 | 63 | 1015.8 |
| 20260903171812 | 88 | 265 | 1.7 | 6.1 | 0.00 | 0.39 | 0.00 | 65 | 1016.1 |
| 20260903170822 | 87 | 310 | 0.9 | 0.9 | 0.00 | 0.39 | 0.00 | 67 | 1016.2 |
| 20260903165758 | 86 | 326 | 0.0 | 5.2 | 0.00 | 0.39 | 0.00 | 70 | 1016.4 |
| 20260903163716 | 83 | 107 | 0.0 | 0.0 | 0.00 | 0.39 | 0.00 | 78 | 1016.6 |
| 20260903162652 | 82 | 101 | 0.0 | 0.0 | 0.00 | 0.39 | 0.00 | 81 | 1016.9 |
| 20260903161627 | 82 | 102 | 0.0 | 0.0 | 0.00 | 0.39 | 0.00 | 81 | 1017.1 |
| 20260903160556 | 82 | 102 | 0.0 | 0.0 | 0.00 | 0.39 | 0.00 | 82 | 1017.4 |
| 20260903155539 | 82 | 104 | 0.0 | 0.9 | 0.00 | 0.39 | 0.00 | 82 | 1017.5 |
| 20260903154528 | 82 | 338 | 0.0 | 4.3 | 0.00 | 0.39 | 0.00 | 81 | 1018.1 |
| 20260903152325 | 84 | 307 | 0.0 | 2.6 | 0.00 | 0.39 | 0.00 | 77 | 1017.1 |
| 20260903151309 | 83 | 266 | 0.0 | 5.2 | 0.00 | 0.39 | 0.00 | 80 | 1017.0 |
| 20260903150243 | 83 | 268 | 0.0 | 0.9 | 0.00 | 0.39 | 0.00 | 79 | 1017.1 |
| 20260903145213 | 83 | 260 | 0.0 | 3.5 | 0.00 | 0.39 | 0.00 | 80 | 1017.0 |
| 20260903144224 | 82 | 206 | 1.7 | 6.1 | 0.00 | 0.39 | 0.00 | 81 | 1017.0 |
| 20260903143204 | 81 | 168 | 0.9 | 6.1 | 0.00 | 0.39 | 0.00 | 83 | 1016.8 |
| 20260903142213 | 79 | 220 | 0.9 | 4.3 | 0.00 | 0.39 | 0.00 | 87 | 1016.7 |
| 20260903141200 | 78 | 179 | 0.9 | 8.7 | 0.00 | 0.39 | 0.00 | 88 | 1016.4 |
| 20260903140139 | 77 | 165 | 1.7 | 8.7 | 0.00 | 0.39 | 0.00 | 88 | 1016.5 |
| 20260903135202 | 77 | 169 | 1.7 | 2.6 | 0.00 | 0.39 | 0.00 | 89 | 1016.4 |
| 20260903134211 | 76 | 250 | 0.9 | 5.2 | 0.00 | 0.39 | 0.00 | 89 | 1016.4 |
| 20260903133234 | 76 | 165 | 1.7 | 5.2 | 0.00 | 0.39 | 0.00 | 90 | 1016.5 |
| 20260903132253 | 76 | 154 | 0.0 | 2.6 | 0.00 | 0.39 | 0.00 | 91 | 1016.7 |
| 20260903131227 | 76 | 178 | 0.0 | 0.9 | 0.00 | 0.39 | 0.00 | 92 | 1017.1 |
| 20260903130248 | 75 | 180 | 0.0 | 0.9 | 0.00 | 0.39 | 0.00 | 93 | 1017.3 |
| 20260903125306 | 75 | 154 | 0.0 | 3.5 | 0.00 | 0.39 | 0.00 | 94 | 1017.5 |
| 20260903124326 | 74 | 152 | 0.0 | 0.0 | 0.00 | 0.39 | 0.00 | 94 | 1017.7 |
| 20260903122210 | 74 | 51 | 0.0 | 0.9 | 0.00 | 0.39 | 0.00 | 94 | 1017.9 |
| 20260903120045 | 74 | 47 | 0.0 | 0.0 | 0.00 | 0.39 | 0.00 | 95 | 1018.1 |
| 20260903115023 | 74 | 47 | 0.0 | 0.9 | 0.00 | 0.39 | 0.00 | 95 | 1018.0 |
| 20260903112821 | 74 | 23 | 0.0 | 1.7 | 0.00 | 0.39 | 0.00 | 95 | 1018.1 |
| 20260903111801 | 74 | 23 | 0.0 | 2.6 | 0.00 | 0.39 | 0.00 | 95 | 1017.8 |
| 20260903110756 | 73 | 23 | 0.0 | 0.0 | 0.00 | 0.39 | 0.00 | 95 | 1017.1 |
| 20260903105750 | 73 | 23 | 0.0 | 0.0 | 0.00 | 0.39 | 0.00 | 95 | 1017.0 |
| 20260903103549 | 73 | 23 | 0.0 | 0.0 | 0.00 | 0.39 | 0.00 | 94 | 1016.5 |
| 20260903102552 | 73 | 23 | 0.0 | 3.5 | 0.00 | 0.39 | 0.00 | 94 | 1016.5 |
| 20260903101538 | 73 | 162 | 0.0 | 0.0 | 0.00 | 0.39 | 0.00 | 94 | 1016.1 |
| 20260903100535 | 73 | 162 | 0.0 | 0.0 | 0.00 | 0.39 | 0.00 | 94 | 1015.9 |
| 20260903095548 | 73 | 162 | 0.0 | 0.0 | 0.00 | 0.39 | 0.00 | 94 | 1016.0 |
| 20260903094534 | 73 | 162 | 0.0 | 0.0 | 0.00 | 0.39 | 0.00 | 94 | 1016.0 |
| 20260903093504 | 73 | 162 | 0.0 | 0.0 | 0.00 | 0.39 | 0.00 | 94 | 1016.2 |
| 20260903092510 | 73 | 162 | 0.0 | 0.0 | 0.00 | 0.39 | 0.00 | 94 | 1016.3 |
| 20260903091439 | 73 | 162 | 0.0 | 0.0 | 0.00 | 0.39 | 0.00 | 94 | 1016.3 |
| 20260903090429 | 73 | 162 | 0.0 | 0.0 | 0.00 | 0.39 | 0.00 | 93 | 1016.2 |
| 20260903085432 | 73 | 162 | 0.0 | 0.0 | 0.00 | 0.39 | 0.00 | 93 | 1016.3 |
| 20260903084453 | 74 | 162 | 0.0 | 0.9 | 0.00 | 0.39 | 0.00 | 93 | 1016.1 |
| 20260903083444 | 74 | 162 | 0.0 | 2.6 | 0.00 | 0.39 | 0.00 | 93 | 1015.8 |
| 20260903082420 | 74 | 162 | 0.0 | 0.0 | 0.00 | 0.39 | 0.00 | 93 | 1015.9 |
| 20260903081354 | 74 | 162 | 0.0 | 0.0 | 0.00 | 0.39 | 0.00 | 93 | 1015.9 |
| 20260903075307 | 74 | 167 | 0.0 | 4.3 | 0.00 | 0.39 | 0.00 | 93 | 1015.9 |
| 20260903073107 | 74 | 117 | 0.0 | 4.3 | 0.00 | 0.39 | 0.00 | 93 | 1016.1 |
| 20260903072036 | 73 | 168 | 0.0 | 4.3 | 0.00 | 0.39 | 0.00 | 93 | 1016.0 |
| 20260903071015 | 73 | 138 | 0.0 | 2.6 | 0.00 | 0.39 | 0.00 | 93 | 1016.0 |
| 20260903070005 | 74 | 111 | 0.0 | 2.6 | 0.00 | 0.39 | 0.00 | 93 | 1016.0 |
| 20260903064946 | 74 | 124 | 0.0 | 0.9 | 0.00 | 0.39 | 0.00 | 93 | 1016.0 |
| 20260903063934 | 74 | 160 | 0.0 | 5.2 | 0.00 | 0.39 | 0.00 | 93 | 1016.1 |
| 20260903061736 | 74 | 145 | 0.0 | 0.0 | 0.00 | 0.39 | 0.00 | 93 | 1016.2 |
| 20260903060744 | 74 | 145 | 0.0 | 0.0 | 0.00 | 0.39 | 0.00 | 93 | 1016.2 |
| 20260903055743 | 74 | 138 | 0.9 | 3.5 | 0.00 | 0.39 | 0.00 | 93 | 1016.1 |
| 20260903054754 | 74 | 107 | 0.0 | 2.6 | 0.00 | 0.39 | 0.00 | 94 | 1016.4 |
| 20260903053725 | 74 | 106 | 0.0 | 0.0 | 0.00 | 0.39 | 0.00 | 94 | 1016.3 |
| 20260903052746 | 73 | 106 | 0.0 | 1.7 | 0.00 | 0.39 | 0.00 | 94 | 1016.3 |
| 20260903051753 | 73 | 106 | 0.0 | 0.0 | 0.00 | 0.39 | 0.00 | 94 | 1016.3 |
| 20260903050735 | 73 | 106 | 0.0 | 0.0 | 0.00 | 0.39 | 0.00 | 94 | 1016.5 |
| 20260903045746 | 73 | 106 | 0.0 | 0.0 | 0.00 | 0.39 | 0.00 | 94 | 1016.6 |
| 20260903044743 | 73 | 106 | 0.0 | 0.0 | 0.00 | 0.39 | 0.00 | 94 | 1016.7 |
| 20260903043731 | 73 | 106 | 0.0 | 0.0 | 0.00 | 0.39 | 0.00 | 94 | 1016.7 |
| 20260903042710 | 73 | 106 | 0.0 | 0.0 | 0.00 | 0.39 | 0.00 | 94 | 1016.7 |
| 20260903040623 | 73 | 106 | 0.0 | 0.0 | 0.00 | 0.39 | 0.00 | 94 | 1017.0 |
| 20260903034433 | 73 | 106 | 0.0 | 0.0 | 0.00 | 0.39 | 0.40 | 93 | 1017.0 |
| 20260903032338 | 73 | 106 | 0.0 | 0.0 | 0.00 | 0.39 | 0.40 | 93 | 1017.0 |
| 20260903031319 | 74 | 106 | 0.0 | 0.0 | 0.00 | 0.39 | 0.40 | 93 | 1017.1 |
| 20260903030308 | 74 | 106 | 0.0 | 2.6 | 0.00 | 0.39 | 0.40 | 93 | 1017.0 |
| 20260903025248 | 74 | 116 | 0.0 | 0.0 | 0.00 | 0.39 | 0.40 | 94 | 1016.9 |
| 20260903024305 | 74 | 200 | 0.0 | 0.0 | 0.00 | 0.39 | 0.40 | 94 | 1016.9 |
| 20260903023321 | 74 | 200 | 0.0 | 0.0 | 0.00 | 0.39 | 0.40 | 94 | 1017.0 |
| 20260903022258 | 74 | 200 | 0.0 | 0.0 | 0.00 | 0.39 | 0.40 | 93 | 1016.8 |
| 20260903021305 | 74 | 200 | 0.0 | 0.0 | 0.00 | 0.39 | 0.40 | 93 | 1016.7 |
| 20260903014011 | 74 | 200 | 0.0 | 0.0 | 0.00 | 0.39 | 0.40 | 93 | 1016.3 |
| 20260903013009 | 74 | 200 | 0.0 | 0.0 | 0.00 | 0.39 | 0.40 | 93 | 1016.6 |
| 20260903011956 | 74 | 200 | 0.0 | 0.0 | 0.00 | 0.39 | 0.40 | 93 | 1016.7 |
| 20260903010934 | 74 | 200 | 0.0 | 0.0 | 0.00 | 0.39 | 0.40 | 93 | 1016.9 |
| 20260903005946 | 74 | 200 | 0.0 | 0.0 | 0.00 | 0.39 | 0.40 | 93 | 1016.9 |
| 20260903004929 | 74 | 200 | 0.0 | 0.0 | 0.00 | 0.39 | 0.40 | 93 | 1016.9 |
| 20260903003905 | 74 | 200 | 0.0 | 0.0 | 0.00 | 0.39 | 0.40 | 92 | 1016.6 |
| 20260903002853 | 75 | 200 | 0.0 | 0.0 | 0.00 | 0.39 | 0.40 | 92 | 1016.5 |
| 20260903001819 | 75 | 200 | 0.0 | 0.0 | 0.00 | 0.39 | 0.40 | 92 | 1016.7 |
| 20260903000826 | 75 | 200 | 0.0 | 0.0 | 0.00 | 0.39 | 0.40 | 91 | 1016.5 |
| 20260902235826 | 75 | 200 | 0.0 | 0.0 | 0.00 | 0.39 | 0.40 | 91 | 1016.7 |
| 20260902233732 | 75 | 200 | 0.0 | 0.0 | 0.00 | 0.39 | 0.40 | 90 | 1016.7 |
| 20260902232710 | 76 | 200 | 0.0 | 0.0 | 0.00 | 0.39 | 0.40 | 89 | 1016.4 |
| 20260902224334 | 77 | 200 | 0.0 | 0.0 | 0.00 | 0.39 | 0.40 | 85 | 1016.9 |
| 20260902223318 | 77 | 200 | 0.0 | 0.0 | 0.00 | 0.39 | 0.40 | 87 | 1016.9 |
| 20260902221117 | 76 | 200 | 0.0 | 0.9 | 0.00 | 0.39 | 0.40 | 89 | 1016.8 |